Location: Beulah Park
(41.5792°N, 81.5726°W)
Time: 04:53:45
(UTC+00:00)

Daily predictions for brighter satellites

Satellite Brightness Start Highest point End
(mag) Time Altitude Azimuth Time Altitude Azimuth Time Altitude Azimuth
BREEZE-M DEB (TANK) 3.0 00:04:18 10° WNW 00:06:49 38° NW 00:06:49 38° NW
STARLINK-80 3.9 00:07:13 10° SW 00:10:21 58° WSW 00:10:21 58° WSW
Meteor 2-4 Rocket 3.6 00:05:27 10° S 00:11:19 75° E 00:13:23 42° NNE
Cosmos 1943 Rocket 2.0 00:08:17 10° NNW 00:13:56 70° ENE 00:14:26 66° E
Cosmos 676 Rocket 4.3 00:10:48 10° SSW 00:15:55 64° WNW 00:17:58 36° N
Meteor 1-19 Rocket 4.5 00:11:11 10° SSW 00:16:38 64° W 00:20:46 18° N
DMSP B5D1-3 4.4 00:16:28 67° NNE 00:17:10 85° ESE 00:22:17 10° SSW
Lacrosse 5 2.1 00:13:45 10° SSW 00:18:10 57° SSE 00:18:10 57° SSE
CZ-3B R/B 3.9 00:15:50 10° S 00:19:34 17° SSE 00:19:44 17° SSE
CSL-04 Rocket 3.9 00:16:38 10° S 00:21:51 65° WSW 00:27:09 10° NNW
Cosmos 1954 Rocket 4.4 00:18:12 10° SSW 00:23:17 58° WNW 00:25:00 39° N
IRIDIUM 104 4.3 00:21:01 10° S 00:26:14 83° W 00:26:52 69° NNW
Meteor 1-12 Rocket 4.2 00:24:04 10° N 00:29:57 87° W 00:35:41 10° S
YAOGAN 1 4.2 00:36:54 10° SSW 00:40:48 33° W 00:44:44 10° NNW
Cosmos 1943 4.5 01:08:16 10° SW 01:11:46 36° WSW 01:11:46 36° WSW
Cosmos 2369 Rocket 4.0 01:23:36 10° NW 01:26:39 27° WNW 01:26:39 27° WNW
CZ-4C R/B 4.3 01:27:25 10° WSW 01:29:01 20° WSW 01:29:01 20° WSW
NOSS 3-1 (C) 4.5 01:24:37 10° NW 01:30:44 59° WNW 01:30:44 59° WNW
CZ-4C R/B 4.0 08:58:50 39° SE 08:58:50 39° SE 09:03:46 10° SE
Cosmos 2263 Rocket 3.9 09:18:16 28° ENE 09:18:16 28° ENE 09:21:22 10° NE
FALCON 9 R/B 3.4 09:42:30 51° S 09:43:27 53° SSE 10:00:52 10° E
Cosmos 1452 Rocket 4.4 09:45:24 46° E 09:45:24 46° E 09:49:56 10° NNE
USA 234 3.2 09:45:07 10° NE 09:51:41 77° SE 09:52:25 69° S
COSMO-SKYMED 1 4.4 09:53:14 10° SE 09:56:55 28° ENE 09:58:09 24° NE
Cosmos 1092 Rocket 4.2 09:57:17 30° N 10:00:27 68° E 10:06:32 10° SSE
Cosmos 1943 3.2 10:07:04 71° NNE 10:07:30 76° ENE 10:13:06 10° SSE
Cosmos 1340 4.4 10:05:58 10° SSE 10:09:19 32° E 10:12:42 10° NNE
NOSS 2-1 (E) 4.5 10:11:05 69° WNW 10:11:47 76° WSW 10:19:59 10° SSE
Cosmos 1346 Rocket 4.5 10:08:24 10° SSE 10:11:50 31° E 10:15:18 10° NNE
Okean O Rocket 3.8 10:18:07 10° NE 10:21:49 26° E 10:25:29 10° SSE
Cosmos 1869 Rocket 3.7 10:17:47 10° S 10:22:52 55° NE 10:26:25 10° NNE
STARLINK 1046 4.5 10:30:06 37° SSE 10:30:06 37° SSE 10:32:27 10° SE
Meteor 1-25 Rocket 4.1 10:24:46 10° SSW 10:30:22 73° W 10:36:05 10° N
STARLINK 1039 4.3 10:33:24 39° SSE 10:33:24 39° SSE 10:35:53 10° SE
Cosmos 1603 3.8 10:32:39 51° WSW 10:32:39 51° WSW 10:37:58 10° S
STARLINK 1045 4.3 10:35:22 40° SSE 10:35:22 40° SSE 10:37:55 10° SE
Geosat 4.3 10:35:38 10° SE 10:40:36 64° ENE 10:43:42 23° NNW
Okean 1-7 3.3 10:43:34 48° SW 10:43:34 48° SW 10:47:06 10° S
CZ-4C R/B 4.0 10:44:05 26° WSW 10:44:05 26° WSW 10:50:11 10° SSW
SKYMED 2 3.4 10:40:31 10° SSE 10:44:51 89° WSW 10:46:48 33° NNW
Meteor 1-14 Rocket 4.2 10:40:00 10° SSW 10:45:56 79° W 10:51:58 10° N
Meteor 2-4 Rocket 4.3 10:45:19 10° N 10:50:41 54° ENE 10:55:55 10° SSE
Cosmos 2026 Rocket 3.9 10:50:16 10° NNW 10:56:23 63° W 11:02:34 10° S
Meteor 1-19 Rocket 4.1 10:52:00 10° NNW 10:57:34 82° W 11:03:15 10° S
GEOS 3 Rocket 3.5 10:53:06 10° SE 10:58:12 87° SW 11:01:13 26° NW
Cosmos 2263 Rocket 2.8 11:00:03 33° WNW 11:00:15 33° WNW 11:05:15 10° N
Okean 1 3.4 11:00:08 47° W 11:00:17 47° W 11:04:06 10° SSW
ATLAS CENTAUR R/B 3.7 11:01:28 10° N 11:04:18 17° NE 11:06:59 10° E
SJ-12 3.9 11:01:49 10° N 11:05:51 56° WNW 11:09:50 10° SSW
Cosmos 2279 Rocket 3.9 11:00:06 10° SSW 11:06:18 77° W 11:12:32 10° N
Cosmos 332 Rocket 4.0 11:03:40 10° SSW 11:08:33 77° ESE 11:13:27 10° NNE
STARLINK 1050 4.5 11:08:37 26° SW 11:08:41 26° SW 11:11:43 10° S
ADEOS Rocket 4.4 11:06:43 10° SE 11:13:03 41° ENE 11:18:48 10° N
USA 116 4.1 11:09:13 10° S 11:13:43 73° WSW 11:18:47 10° NNW
Cosmos 1741 Rocket 4.2 11:12:00 21° NW 11:15:12 49° WSW 11:20:12 10° S
CZ-4B DEB 4.2 11:11:01 10° N 11:16:29 61° WNW 11:21:55 10° SSW
Cosmos 1634 Rocket 4.4 11:13:03 10° SW 11:18:44 37° WNW 11:24:25 10° N
FENGYUN 3A 3.6 11:14:23 10° N 11:19:42 62° WNW 11:24:59 10° SSW
Okean 3 3.3 11:15:49 10° NNW 11:19:59 69° W 11:24:11 10° S
SMAP 4.5 11:17:59 10° NNE 11:22:24 41° E 11:26:48 10° S
Cosmos 44 3.6 11:20:29 15° WSW 11:24:06 39° NW 11:28:21 10° NNE
SL-24 R/B 4.1 11:22:35 10° SSE 11:26:58 86° ENE 11:31:13 10° NNW
Cosmos 1536 3.4 11:23:17 10° S 11:27:17 61° E 11:31:19 10° NNE
METEOR-M 4.3 11:23:33 10° N 11:28:42 50° WNW 11:33:50 10° SW
Cosmos 371 Rocket 3.4 11:24:14 10° SW 11:28:58 54° WNW 11:33:45 10° N
Cosmos 1844 Rocket 2.6 11:26:06 10° SSW 11:31:41 81° WNW 11:37:17 10° NNE
DMSP B5D1-3 4.5 11:27:48 10° S 11:32:54 68° WSW 11:38:04 10° NNW
COSMO-SKYMED 1 3.6 11:29:23 10° SSW 11:33:01 26° W 11:35:21 17° NW
ALOS 2.7 11:29:29 10° N 11:33:48 38° WNW 11:38:05 10° SW
USA 234 3.8 11:28:25 10° NE 11:34:22 39° NNW 11:39:47 12° W
H-2A R/B 3.5 11:31:08 10° NNE 11:34:50 56° E 11:38:34 10° S
Cosmos 1844 3.8 11:30:11 10° SSW 11:35:59 86° ESE 11:41:48 10° NNE
Cosmos 405 2.9 11:33:27 10° NNW 11:37:00 81° W 11:40:30 10° S
NOSS 3-2 (C) 4.1 11:32:01 10° SSW 11:37:32 56° ESE 11:43:44 10° NE
Cosmos 1302 Rocket 4.1 11:32:31 10° SSW 11:37:48 82° ESE 11:43:07 10° NNE
ATLAS 3B R/B 4.4 11:32:52 10° S 11:38:55 36° ESE 11:44:55 10° NE
CZ-4B R/B 3.3 11:34:51 10° N 11:40:22 59° WNW 11:45:55 10° SSW
BREEZE-M DEB (TANK) 3.9 11:37:29 15° WNW 11:42:06 31° NNW 11:44:53 10° NE
Meteor 1-13 Rocket 4.2 11:36:50 10° NNW 11:42:21 73° W 11:47:57 10° S
Cosmos 1655 Rocket 4.1 11:38:07 10° NNW 11:44:10 56° W 11:50:12 10° SSW
Cosmos 1340 4.2 11:42:39 10° WSW 11:45:02 16° WNW 11:47:25 10° NNW
GPS 2-04 Rocket1 4.4 11:42:25 10° SW 11:45:52 29° SSE 11:49:27 10° ESE
NOAA 6 4.2 11:41:25 10° N 11:46:18 47° WNW 11:51:12 10° SW
Cosmos 1733 Rocket 3.3 11:43:05 10° SSW 11:47:10 42° WNW 11:51:18 10° N
Cosmos 2292 Rocket 4.4 11:40:46 10° N 11:47:17 76° E 11:52:04 10° SSE
Cosmos 1346 Rocket 4.2 11:45:42 10° WSW 11:48:17 17° WNW 11:50:53 10° NNW
Helios 1A Rocket 3.5 11:47:21 10° N 11:51:01 34° WNW 11:54:39 10° SW
Cosmos 1500 3.8 11:50:55 10° SW 11:54:26 34° WNW 11:57:57 10° N
